Aberdeen / Amory, MS

8:00 PM CDT on March 25, 2017 (GMT -0500)
Aberdeen / Amory

Weather History for KM40 - August, 2013

Change the Weather History Date:

Thursday, August 29, 2013

  Actual Average (KCBM) Record (KCBM)
Temperature  
Mean Temperature 82 °F -  
Max Temperature 98 °F 88 °F 98 °F (1999)
Min Temperature 66 °F 68 °F 65 °F (2011)
Cooling Degree Days 17    
Growing Degree Days 32 (Base 50)    
Moisture  
Dew Point 63 °F    
Average Humidity 55    
Maximum Humidity 60    
Minimum Humidity 52    
Precipitation  
Precipitation 0.00 in - - ()
Sea Level Pressure  
Sea Level Pressure 30.04 in    
Wind  
Wind Speed 1 mph (NW)    
Max Wind Speed 7 mph    
Max Gust Speed -    
Visibility 5 miles    
Events      
Averages and records for this station are not official NWS values.
T = Trace of Precipitation, MM = Missing Value Source: NWS Daily Summary

Daily Weather History Graph

Daily Weather History Graph

Search for Another Location

Airport or City:

Trip Planner

Search our weather history database for the weather conditions in past years. The results will help you decide how hot, cold, wet, or windy it might be!

Date:

Astronomy

Aug. 29, 2013 Rise Set
Actual Time 6:25 AM CDT 7:23 PM CDT
Civil Twilight 6:00 AM CDT 7:48 PM CDT
Nautical Twilight 5:29 AM CDT 8:19 PM CDT
Astronomical Twilight 4:58 AM CDT 8:50 PM CDT
Moon 12:25 AM CDT (8/29) 2:43 PM CDT (8/29)
Length of Visible Light 13h 48m
Length of Day
12h 57m
Last Quarter, 38% of the Moon is Illuminated
Aug 29
Last Quarter
Sep 5
New
Sep 12
First Quarter
Sep 19
Full
Sep 26
Last Quarter

Hourly Weather History & Observations

Time (CDT) Temp. Heat Index Dew Point Humidity Pressure Visibility Wind Dir Wind Speed Gust Speed Precip Events Conditions
12:15 AM 69.8 °F - 53.6 °F 56% 30.06 in 2.0 mi Calm Calm - N/A   Haze
12:35 AM 69.8 °F - 53.6 °F 56% 30.06 in 0.2 mi Calm Calm - N/A   Haze
12:55 AM 69.8 °F - 53.6 °F 56% 30.06 in 1.8 mi Calm Calm - N/A   Haze
1:15 AM 69.8 °F - 53.6 °F 56% 30.06 in 1.0 mi Calm Calm - N/A   Haze
1:35 AM 69.8 °F - 51.8 °F 53% 30.06 in 2.0 mi Calm Calm - N/A   Haze
1:55 AM 69.8 °F - 51.8 °F 53% 30.05 in 1.5 mi Calm Calm - N/A   Haze
2:15 AM 69.8 °F - 51.8 °F 53% 30.05 in 1.0 mi Calm Calm - N/A   Haze
2:35 AM 68.0 °F - 51.8 °F 56% 30.05 in 0.5 mi Calm Calm - N/A   Haze
2:55 AM 68.0 °F - 51.8 °F 56% 30.05 in 0.8 mi Calm Calm - N/A   Haze
3:15 AM 68.0 °F - 51.8 °F 56% 30.05 in 2.5 mi Calm Calm - N/A   Haze
3:35 AM 68.0 °F - 51.8 °F 56% 30.05 in 2.0 mi Calm Calm - N/A   Haze
3:55 AM 68.0 °F - 51.8 °F 56% 30.05 in 0.8 mi Calm Calm - N/A   Haze
4:15 AM 66.2 °F - 51.8 °F 60% 30.05 in 2.0 mi Calm Calm - N/A   Haze
4:35 AM 66.2 °F - 50.0 °F 56% 30.04 in 0.5 mi Calm Calm - N/A   Haze
4:55 AM 66.2 °F - 50.0 °F 56% 30.05 in 0.2 mi Calm Calm - N/A   Haze
5:15 AM 66.2 °F - 50.0 °F 56% 30.06 in 0.8 mi Calm Calm - N/A   Haze
5:35 AM 66.2 °F - 50.0 °F 56% 30.06 in 0.2 mi Calm Calm - N/A   Haze
5:55 AM 66.2 °F - 50.0 °F 56% 30.06 in 0.5 mi Calm Calm - N/A   Haze
6:15 AM 66.2 °F - 50.0 °F 56% 30.07 in 1.0 mi Calm Calm - N/A   Haze
6:35 AM 66.2 °F - 48.2 °F 52% 30.08 in 0.8 mi Calm Calm - N/A   Haze
6:55 AM 66.2 °F - 50.0 °F 56% 30.08 in 1.0 mi Calm Calm - N/A   Haze
7:15 AM 68.0 °F - 51.8 °F 56% 30.09 in 4.0 mi Calm Calm - N/A   Haze
7:35 AM 69.8 °F - 53.6 °F 56% 30.09 in 3.0 mi Calm Calm - N/A   Haze
7:55 AM 73.4 °F - 55.4 °F 53% 30.09 in 4.0 mi Calm Calm - N/A   Haze
8:15 AM 75.2 °F - 57.2 °F 53% 30.10 in 6.0 mi Calm Calm - N/A   Haze
8:35 AM 77.0 °F - 60.8 °F 57% 30.10 in 7.0 mi Calm Calm - N/A   Clear
8:55 AM 80.6 °F 81.8 °F 62.6 °F 54% 30.10 in 8.0 mi Calm Calm - N/A   Clear
9:15 AM 82.4 °F 83.9 °F 64.4 °F 54% 30.10 in 7.0 mi NNW 3.5 mph - N/A   Clear
9:35 AM 84.2 °F 86.6 °F 66.2 °F 55% 30.10 in 7.0 mi North 4.6 mph - N/A   Clear
9:55 AM 86.0 °F 90.4 °F 69.8 °F 58% 30.11 in 6.0 mi Calm Calm - N/A   Haze
10:15 AM 87.8 °F 92.6 °F 69.8 °F 55% 30.11 in 7.0 mi Calm Calm - N/A   Clear
10:35 AM 89.6 °F 96.2 °F 71.6 °F 55% 30.10 in 7.0 mi NNW 4.6 mph - N/A   Clear
10:55 AM 91.4 °F 100.1 °F 73.4 °F 55% 30.10 in 7.0 mi Calm Calm - N/A   Clear
11:15 AM 91.4 °F 100.1 °F 73.4 °F 55% 30.09 in 8.0 mi NNW 4.6 mph - N/A   Clear
11:35 AM 93.2 °F 105.0 °F 75.2 °F 56% 30.09 in 8.0 mi WNW 6.9 mph - N/A   Clear
12:15 PM 95.0 °F 109.7 °F 77.0 °F 56% 30.07 in 8.0 mi West 6.9 mph - N/A   Clear
12:55 PM 96.8 °F 114.8 °F 78.8 °F 56% 30.06 in 8.0 mi WNW 3.5 mph - N/A   Clear
1:15 PM 98.6 °F 117.2 °F 78.8 °F 53% 30.05 in 8.0 mi WSW 3.5 mph - N/A   Clear
1:35 PM 98.6 °F 117.2 °F 78.8 °F 53% 30.04 in 8.0 mi Calm Calm - N/A   Clear
1:55 PM 96.8 °F 114.8 °F 78.8 °F 56% 30.03 in 8.0 mi Calm Calm - N/A   Clear
2:15 PM 96.8 °F 114.8 °F 78.8 °F 56% 30.03 in 8.0 mi Calm Calm - N/A   Partly Cloudy
2:35 PM 95.0 °F 109.7 °F 77.0 °F 56% 30.02 in 8.0 mi Calm Calm - N/A   Partly Cloudy
2:55 PM 96.8 °F 114.8 °F 78.8 °F 56% 30.02 in 8.0 mi WNW 5.8 mph - N/A   Partly Cloudy
3:15 PM 95.0 °F 109.7 °F 77.0 °F 56% 30.01 in 8.0 mi Calm Calm - N/A   Partly Cloudy
3:35 PM 98.6 °F 120.3 °F 80.6 °F 56% 30.01 in 8.0 mi WNW 4.6 mph - N/A   Clear
3:55 PM 96.8 °F 114.8 °F 78.8 °F 56% 30.01 in 9.0 mi WNW 5.8 mph - N/A   Clear
4:15 PM 96.8 °F 114.8 °F 78.8 °F 56% 30.00 in 7.0 mi West 3.5 mph - N/A   Clear
4:35 PM 98.6 °F 120.3 °F 80.6 °F 56% 30.00 in 9.0 mi NW 5.8 mph - N/A   Partly Cloudy
4:55 PM 98.6 °F 117.2 °F 78.8 °F 53% 30.00 in 8.0 mi NNW 5.8 mph - N/A   Partly Cloudy
5:15 PM 93.2 °F 105.0 °F 75.2 °F 56% 30.00 in 8.0 mi North 3.5 mph - N/A   Clear
5:35 PM 91.4 °F 100.1 °F 73.4 °F 55% 30.00 in 7.0 mi Calm Calm - N/A   Clear
5:55 PM 93.2 °F 105.0 °F 75.2 °F 56% 29.99 in 9.0 mi Calm Calm - N/A   Clear
6:15 PM 93.2 °F 105.0 °F 75.2 °F 56% 29.99 in 9.0 mi Calm Calm - N/A   Clear
6:35 PM 91.4 °F 100.1 °F 73.4 °F 55% 29.99 in 8.0 mi Calm Calm - N/A   Clear
6:55 PM 89.6 °F 96.2 °F 71.6 °F 55% 30.00 in 8.0 mi Calm Calm - N/A   Clear
7:15 PM 86.0 °F 90.4 °F 69.8 °F 58% 30.00 in 7.0 mi Calm Calm - N/A   Clear
7:35 PM 82.4 °F 83.9 °F 64.4 °F 54% 30.01 in 5.0 mi Calm Calm - N/A   Haze
7:55 PM 80.6 °F 81.8 °F 62.6 °F 54% 30.01 in 5.0 mi Calm Calm - N/A   Haze
8:15 PM 78.8 °F - 62.6 °F 57% 30.01 in 5.0 mi Calm Calm - N/A   Haze
8:35 PM 78.8 °F - 60.8 °F 54% 30.01 in 5.0 mi Calm Calm - N/A   Haze
8:55 PM 78.8 °F - 60.8 °F 54% 30.01 in 5.0 mi Calm Calm - N/A   Haze
9:15 PM 77.0 °F - 60.8 °F 57% 30.01 in 4.0 mi Calm Calm - N/A   Haze
9:35 PM 75.2 °F - 59.0 °F 57% 30.01 in 3.0 mi Calm Calm - N/A   Haze
9:55 PM 75.2 °F - 59.0 °F 57% 30.01 in 3.0 mi Calm Calm - N/A   Haze
10:15 PM 75.2 °F - 57.2 °F 53% 30.01 in 3.0 mi Calm Calm - N/A   Haze
10:35 PM 75.2 °F - 57.2 °F 53% 30.00 in 2.0 mi Calm Calm - N/A   Haze
10:55 PM 73.4 °F - 57.2 °F 57% 30.00 in 3.0 mi Calm Calm - N/A   Haze
11:15 PM 73.4 °F - 57.2 °F 57% 30.00 in 1.8 mi Calm Calm - N/A   Haze
11:35 PM 73.4 °F - 57.2 °F 57% 30.00 in 3.0 mi Calm Calm - N/A   Haze
11:55 PM 73.4 °F - 55.4 °F 53% 30.00 in 1.0 mi Calm Calm - N/A   Haze